DECAYED

STARLINK-11126, 59951 (Decayed)

Orbit data source: Space-Track

STARLINK-11126, 59951 was a payload satellite owned by SpaceX/Seattle (US) in LEO that was launched on Wed, 05 Jun 2024 UTC via an FALCON 9 launch vehicle from the Air Force Eastern Test Range (AFETR). Payload-class satellites include a variety of spacecraft equipped with specific instruments for various scientific and technological missions. These include communications satellites like Starlink; space stations such as the ISS; scientific satellites like the Hubble; Earth observation satellites from companies like Planet Labs, Umbra, and HawkEye 360; GPS; miniature CubeSats for education and research; and military/defense satellites.

Not visible in the next 10 days
Identifier
59951, 2024-107G
Orbit
Decayed
Country
Flag of USUS
Related business
Manufacturer
SpaceX/Seattle
Mission
Decayed spacecraft
Bus & Motor
STARLINK V2MD, Unknown motor
Mass
960 kg wet, ~910 kg dry
Launch date (UTC)
2024-06-05 (1 year ago)
Launch vehicle
FALCON 9
Launch site
Air Force Eastern Test Range (AFETR)
Object type
Payload
Rocket body
Debris
Shape & HBR
Unknown
Radar Cross Section
Large (>1 m²)

Expand to show TLE details & history
Last TLE update: 5 months ago

TLE from 5 months ago
0 STARLINK-11126
1 59951U 24107G   25110.90627451  .04339931  12050-4  91491-3 0  9997
2 59951  53.1317  20.3657 0008552 235.5455 213.6012 16.30035905 51792
Epoch: 2025-04-20T21:45Z
TLE epoch observation values (Epoch: 2025-04-20T21:45:02.117Z)
Latitude
53.27995°
Longitude
-66.63569°
Altitude
203.639 km
Speed
7.788 km/s
True Right ascension
07h 15m 24s
True Declination
53° 06' 04"
Sunlit
Object was in daylight at epoch
Visualization orbit readout
Latitude
Unknown
Longitude
Unknown
Altitude
Unknown
Speed
Unknown
Apparent Right ascension
Unknown
Apparent Declination
Unknown
Sunlit
N/A
Visualization observer readout
Local Sidereal Time
13:53:35
Azimuth
Unknown
Elevation
Unknown
Doppler factor
Unknown
Orbital elements
Apogee altitude
198.335 km
Perigee altitude
187.096 km
Semi-major axis
6,570.852 km
Eccentricity
0.00086
Inclination
53.1317°
RAAN
20.3657°
Arg. of periapsis
235.5455°
True anomaly
213.54701°
Mean anomaly
213.6012°
Eccentric anomaly
213.5741°
Mean motion
4.07484 °/min
Orbital period
88.35 mins
BSTAR
0.00091491
Loading maneuver chart data...
Computing Atmospheric mass density...
Loading historical data...
Loading historical data...
Loading historical data...
Loading historical data...
Loading historical data...
Loading historical data...
Loading historical data...

Documentation

Showing up to 5 results
|